Location: Asheville, NC
(35.6000°N, 82.5500°W)
Time: 14:58:56
(UTC-05:00)

XW-2B - Pass Details

Date: 05 January 2018
Orbit: 511 x 530 km, 97.5° (Epoch: 17 January)

Event Time Altitude Azimuth Distance (km) Brightness Sun altitude
Rises 05:52:50 0° 26° (NNE) 2,654 ? -21.3°
Reaches altitude 10° 05:55:15 10° 41° (NE) 1,757 ? -20.8°
Maximum altitude 05:58:21 24° 96° (E) 1,114 ? -20.2°
Drops below altitude 10° 06:01:24 10° 151° (SSE) 1,736 ? -19.6°
Sets 06:03:47 0° 165° (SSE) 2,614 ? -19.1°
